Date String (YYYY-MM-DD hh:mm:ss) UTC,Instrument flags,Ambient pressure (hPa),Sample flow (lpm),Bypass flow (lpm),Sample temperature (°C),Ambient temperature (°C),ASC tube jacket temperature (°C),LED temperature (°C),Box temperature (°C),Sample RH (%),Span deviation,Mass concentration (μg/m³),Mass concentration (μg/m³),Mass concentration (μg/m³)
DateTimeUTC,F1_M11,P_M11,Q1_M11,Q2_M11,T1_M11,T2_M11,T3_M11,T4_M11,T5_M11,U1_M11,ZSPAN_M11,X0_M11,X2_M11,X1_M11
2022-06-26 17:00:00,,0838.6,5.00,0.00,30.3,28.7,00.0,39.2,32.1,18.0,0000.0,0012.11,0005.40,0004.58
2022-06-26 17:01:00,,0838.6,5.00,0.00,30.3,28.8,00.0,39.2,32.1,18.3,0000.0,0011.79,0005.39,0004.56
2022-06-26 17:02:00,,0838.7,5.01,0.00,30.3,28.9,00.0,39.2,32.1,17.9,0000.0,0011.74,0005.36,0004.57
2022-06-26 17:03:00,,0838.7,4.99,0.00,30.3,29.0,00.0,39.2,32.1,18.0,0000.0,0011.78,0005.41,0004.59
2022-06-26 17:04:00,,0838.7,4.99,0.00,30.3,29.1,00.0,39.2,32.1,18.3,0000.0,0011.69,0005.43,0004.59
2022-06-26 17:05:00,,0838.6,5.00,0.00,30.3,29.1,00.0,39.2,32.2,18.3,0000.0,0011.62,0005.43,0004.59
2022-06-26 17:06:00,,0838.6,5.00,0.00,30.4,29.2,00.0,39.2,32.2,18.1,0000.0,0011.86,0005.42,0004.60
2022-06-26 17:07:00,,0838.7,4.99,0.00,30.4,29.2,00.0,39.2,32.2,18.2,0000.0,0011.51,0005.45,0004.63
2022-06-26 17:08:00,,0838.7,4.99,0.00,30.4,29.3,00.0,39.2,32.2,18.4,0000.0,0010.65,0005.42,0004.65
2022-06-26 17:09:00,,0838.6,5.01,0.00,30.4,29.3,00.0,39.2,32.3,18.2,0000.0,0010.52,0005.36,0004.65
2022-06-26 17:10:00,,0838.6,4.99,0.00,30.4,29.4,00.0,39.2,32.3,18.0,0000.0,0010.63,0005.37,0004.67
2022-06-26 17:11:00,,0838.6,5.00,0.00,30.4,29.4,00.0,39.2,32.3,18.0,0000.4,0011.42,0005.43,0004.71
2022-06-26 17:12:00,,0838.5,5.01,0.00,30.5,29.4,00.0,39.2,32.3,18.1,0000.9,0011.52,0005.49,0004.78
2022-06-26 17:13:00,,0838.5,4.99,0.00,30.5,29.5,00.0,39.3,32.3,18.1,0000.8,0011.30,0005.56,0004.81
2022-06-26 17:14:00,,0838.5,5.00,0.00,30.5,29.5,00.0,39.3,32.4,18.2,0001.2,0011.13,0005.62,0004.83
2022-06-26 17:15:00,,0838.6,5.00,0.00,30.5,29.5,00.0,39.3,32.4,18.0,0001.1,0011.34,0005.66,0004.85
2022-06-26 17:16:00,,0838.5,5.00,0.00,30.5,29.6,00.0,39.3,32.4,18.0,0000.9,0011.31,0005.69,0004.89
2022-06-26 17:17:00,,0838.5,5.02,0.00,30.5,29.6,00.0,39.3,32.4,18.2,0000.6,0012.32,0005.77,0004.90
2022-06-26 17:18:00,,0838.4,5.01,0.00,30.6,29.6,00.0,39.3,32.4,18.4,0000.6,0012.69,0005.74,0004.89
2022-06-26 17:19:00,,0838.4,4.98,0.00,30.6,29.6,00.0,39.3,32.5,18.3,0000.6,0012.66,0005.73,0004.88
2022-06-26 17:20:00,,0838.4,5.01,0.00,30.6,29.7,00.0,39.4,32.5,18.2,0000.7,0012.82,0005.78,0004.90
2022-06-26 17:21:00,,0838.4,4.99,0.00,30.6,29.7,00.0,39.4,32.5,18.1,0000.8,0013.30,0005.80,0004.91
2022-06-26 17:22:00,,0838.4,5.02,0.00,30.6,29.3,00.0,39.3,32.4,18.3,0000.9,0012.91,0005.82,0004.93
2022-06-26 17:23:00,,0838.4,5.00,0.00,30.5,28.2,00.0,39.3,32.1,18.5,0000.9,0012.88,0005.83,0004.92
2022-06-26 17:24:00,,0838.3,5.00,0.00,30.4,27.7,00.0,39.2,32.0,18.8,0001.1,0013.44,0005.84,0004.89
2022-06-26 17:25:00,,0838.3,5.00,0.00,30.3,27.6,00.0,39.2,31.9,18.6,0000.8,0013.39,0005.78,0004.87
2022-06-26 17:26:00,,0838.3,5.01,0.00,30.2,27.7,00.0,39.1,31.8,18.8,0000.7,0013.71,0005.75,0004.83
2022-06-26 17:27:00,,0838.4,4.99,0.00,30.2,27.8,00.0,39.1,31.8,18.6,0000.4,0013.73,0005.75,0004.80
2022-06-26 17:28:00,,0838.3,4.99,0.00,30.2,28.0,00.0,39.1,31.8,18.6,0000.4,0012.64,0005.72,0004.79
2022-06-26 17:29:00,,0838.3,5.00,0.00,30.1,28.1,00.0,39.1,31.8,19.0,0000.3,0012.27,0005.75,0004.79
2022-06-26 17:30:00,,0838.3,5.00,0.00,30.1,28.3,00.0,39.1,31.9,19.0,0000.1,0012.31,0005.76,0004.79
2022-06-26 17:31:00,,0838.3,5.00,0.00,30.1,28.4,00.0,39.0,31.9,19.1,-000.0,0012.12,0005.73,0004.77
2022-06-26 17:32:00,,0838.3,5.00,0.00,30.1,28.6,00.0,39.0,31.9,19.1,-000.1,0011.53,0005.64,0004.73
2022-06-26 17:33:00,,0838.2,5.00,0.00,30.1,28.7,00.0,39.0,31.9,19.0,-000.2,0011.94,0005.59,0004.70
2022-06-26 17:34:00,,0838.2,5.00,0.00,30.1,28.8,00.0,39.0,32.0,19.1,0000.2,0012.80,0005.60,0004.69
2022-06-26 17:35:00,,0838.1,5.01,0.00,30.1,28.9,00.0,39.0,32.0,19.0,0000.1,0012.47,0005.61,0004.71
2022-06-26 17:36:00,,0838.2,4.99,0.00,30.2,29.0,00.0,39.0,32.0,19.2,0000.8,0012.42,0005.63,0004.72
2022-06-26 17:37:00,,0838.1,5.00,0.00,30.2,29.0,00.0,39.0,32.0,19.1,0001.2,0012.16,0005.61,0004.74
2022-06-26 17:38:00,,0838.1,5.01,0.00,30.2,29.1,00.0,39.0,32.1,19.2,0001.3,0012.03,0005.58,0004.75
2022-06-26 17:39:00,,0838.2,5.01,0.00,30.2,29.1,00.0,39.0,32.1,19.3,0001.6,0012.67,0005.55,0004.75
2022-06-26 17:40:00,,0838.2,4.99,0.00,30.2,29.2,00.0,39.0,32.1,19.5,0001.7,0013.33,0005.51,0004.74
2022-06-26 17:41:00,,0838.1,5.01,0.00,30.3,29.2,00.0,39.1,32.1,19.0,0002.1,0013.33,0005.54,0004.75
2022-06-26 17:42:00,,0838.1,5.01,0.00,30.3,29.3,00.0,39.1,32.2,19.0,0002.2,0013.48,0005.52,0004.76
2022-06-26 17:43:00,,0838.1,4.98,0.00,30.3,29.3,00.0,39.1,32.2,18.9,0002.2,0013.41,0005.54,0004.78
2022-06-26 17:44:00,,0838.1,5.00,0.00,30.3,29.4,00.0,39.1,32.2,18.8,0002.1,0012.92,0005.54,0004.79
2022-06-26 17:45:00,,0838.1,5.01,0.00,30.3,29.4,00.0,39.1,32.2,18.9,0001.9,0012.19,0005.52,0004.80
2022-06-26 17:46:00,,0838.0,5.00,0.00,30.4,29.4,00.0,39.1,32.3,18.9,0001.8,0011.91,0005.52,0004.80
2022-06-26 17:47:00,,0838.0,5.00,0.00,30.4,29.5,00.0,39.1,32.3,18.7,0001.4,0011.89,0005.52,0004.80
2022-06-26 17:48:00,,0838.0,5.01,0.00,30.4,29.5,00.0,39.2,32.3,18.7,0001.4,0011.58,0005.53,0004.80
2022-06-26 17:49:00,,0838.0,5.00,0.00,30.4,29.5,00.0,39.2,32.3,18.9,0001.5,0012.17,0005.58,0004.80
2022-06-26 17:50:00,,0838.0,4.99,0.00,30.5,29.6,00.0,39.2,32.4,19.1,0001.1,0011.62,0005.58,0004.81
2022-06-26 17:51:00,,0838.0,4.99,0.00,30.5,29.6,00.0,39.2,32.4,18.9,0001.1,0011.23,0005.60,0004.82
2022-06-26 17:52:00,,0838.0,5.01,0.00,30.5,29.5,00.0,39.2,32.4,18.7,0000.8,0011.46,0005.58,0004.82
2022-06-26 17:53:00,,0838.0,5.00,0.00,30.4,28.6,00.0,39.1,32.1,19.0,0000.1,0011.95,0005.58,0004.83
2022-06-26 17:54:00,,0838.0,4.99,0.00,30.3,27.8,00.0,39.1,31.9,19.1,-000.0,0013.02,0005.62,0004.82
2022-06-26 17:55:00,,0838.0,5.00,0.00,30.2,27.6,00.0,39.0,31.8,18.9,0000.2,0013.50,0005.69,0004.84
2022-06-26 17:56:00,,0838.0,5.01,0.00,30.1,27.6,00.0,39.0,31.7,19.1,0000.1,0013.69,0005.75,0004.88
2022-06-26 17:57:00,,0838.0,5.00,0.00,30.1,27.7,00.0,39.0,31.7,19.3,0000.6,0014.65,0005.76,0004.90
2022-06-26 17:58:00,,0838.0,5.00,0.00,30.0,27.9,00.0,39.0,31.7,19.5,0001.2,0014.87,0005.82,0004.92
2022-06-26 17:59:00,,0838.0,5.00,0.00,30.0,28.0,00.0,38.9,31.7,19.3,0001.1,0015.04,0005.84,0004.94
